Location: Blaincourt
(49.2234°N, 2.3555°E)
Time: 03:16:53
(UTC+00:00)

Daily predictions for brighter satellites

Satellite Brightness Start Highest point End
(mag) Time Altitude Azimuth Time Altitude Azimuth Time Altitude Azimuth
CENTAUR R/B 4.1 03:11:58 31° NE 03:11:58 31° NE 03:15:34 10° NE
NOSS 3-2 (C) 4.5 03:51:07 39° NNE 03:51:07 39° NNE 03:55:18 10° NE
Cosmos 2369 Rocket 3.7 03:51:56 30° NE 03:51:56 30° NE 03:54:46 10° NNE
Cosmos 1943 Rocket 4.2 03:59:15 19° NNE 03:59:15 19° NNE 04:00:51 10° NNE
CZ-2C R/B 4.2 03:53:42 10° SE 03:58:27 32° ENE 04:00:25 25° NNE
Cosmos 2344 3.8 04:05:25 55° N 04:05:25 55° N 04:12:35 10° NE
Cosmos 2279 Rocket 4.4 04:06:26 41° NNE 04:08:30 60° ENE 04:14:37 10° SSE
USA 238 DEB 4.1 04:17:53 49° N 04:17:53 49° N 04:23:32 10° NE
USA 238 4.1 04:17:58 50° N 04:17:58 50° N 04:23:39 10° NE
SJ 16-02 3.7 04:15:13 10° SSE 04:18:36 22° E 04:21:59 10° NE
USA 215 3.5 04:13:20 10° E 04:19:42 57° NNE 04:20:33 53° N
Cosmos 2227 Rocket 4.4 04:17:14 14° N 04:19:45 18° NE 04:23:31 10° ENE
Lacrosse 4 Rocket 4.2 04:23:22 12° NNE 04:23:51 12° NNE 04:25:36 10° NE
Cosmos 2098 Rocket 4.4 04:28:03 41° NNE 04:28:03 41° NNE 04:31:57 10° NNE
ATLAS 5 CENTAUR R/B 2.6 04:41:25 36° SE 04:41:51 38° ESE 04:45:50 10° NE
COSMOS 2487 4.1 04:47:50 31° E 04:47:50 31° E 04:50:13 10° SE
SKYMED 2 3.7 04:44:10 10° SSE 04:48:29 71° ENE 04:48:34 70° ENE
Cosmos 2278 Rocket 4.5 04:51:17 11° N 04:51:17 11° N 04:51:36 10° N
Cosmos 1354 Rocket 3.9 04:53:50 45° SSW 04:55:32 86° WNW 05:00:54 10° NNE
H-2A R/B 4.3 04:52:55 10° ESE 04:56:24 24° ENE 04:59:57 10° N
CENTAUR R/B 3.3 04:59:09 35° NW 04:59:53 36° NNW 05:06:51 10° NE
CZ-4C R/B 3.6 05:04:12 10° SSE 05:06:53 48° E 05:06:53 48° E
Cosmos 2180 Rocket 4.3 05:02:07 13° NNW 05:07:36 69° W 05:13:39 10° S
SL-19 R/B 4.3 05:02:33 10° S 05:08:00 58° WSW 05:09:39 42° NW
FALCON 9 DEB 4.2 05:14:22 34° ENE 05:14:22 34° ENE 05:16:17 10° E
FALCON 9 DEB 4.1 05:16:00 35° ENE 05:16:00 35° ENE 05:17:58 10° E
FALCON 9 DEB 4.1 05:17:27 34° NE 05:17:27 34° NE 05:19:30 10° E
Cosmos 1538 Rocket 3.9 05:16:45 26° NNW 05:19:47 86° ENE 05:24:59 10° SSE
Cosmos 1656 Rocket 4.0 05:20:45 39° NW 05:20:46 39° NW 05:25:54 10° NNE
MOS 1-B Rocket 4.1 05:15:45 10° S 05:21:25 44° W 05:23:07 35° WNW
Alouette 2 Rocket 3.4 05:20:03 29° N 05:21:45 66° ENE 05:25:23 10° SSE
Meteor 1-27 Rocket 3.6 05:16:41 12° NNW 05:22:00 78° W 05:27:46 10° S
ADEOS 4.0 05:21:26 10° NNE 05:26:40 65° ESE 05:31:50 10° S
Cosmos 2297 Rocket 2.9 05:23:49 15° NNW 05:28:29 52° NE 05:33:59 10° SE
Cosmos 1607 3.9 05:26:35 26° NW 05:30:21 88° SW 05:36:30 10° SE
Meteor 2-15 Rocket 4.3 05:25:10 10° NNW 05:31:12 65° W 05:37:11 10° S
ATLAS 3B R/B 2.8 05:26:04 10° SSW 05:32:36 78° SE 05:39:30 10° NE
Cosmos 773 Rocket 4.5 05:32:06 35° W 05:32:45 37° WSW 05:37:27 10° SSW
FALCON 9 DEB 3.6 05:32:32 43° N 05:32:51 45° N 05:36:08 10° E
Cosmos 2369 Rocket 3.1 05:33:45 27° NW 05:33:45 27° NW 05:38:27 10° NNE
Cosmos 1503 Rocket 4.5 05:32:42 34° W 05:33:59 39° WNW 05:39:02 10° NNE
H-2A R/B 4.4 05:30:55 10° N 05:39:24 - SSW 05:32:10 19° N
Landsat 5 3.7 05:30:13 10° S 05:34:37 54° W 05:36:39 29° NW
Cosmos 1340 Rocket 2.7 05:31:49 10° SSW 05:35:48 85° WNW 05:39:51 10° N
COSMO-SKYMED 1 3.0 05:32:34 10° SSW 05:36:38 39° W 05:37:09 37° W
Cosmos 1777 Rocket 3.9 05:31:40 10° SSW 05:36:52 70° WNW 05:42:08 10° NNE
CZ-2C R/B 2.9 05:33:27 10° S 05:38:37 44° W 05:41:55 20° NW
CZ-4B R/B 3.6 05:35:58 10° ESE 05:38:37 23° ENE 05:41:15 10° NNE
Cosmos 1680 Rocket 4.4 05:33:57 10° NNW 05:39:06 47° ENE 05:44:09 10° SE
Cosmos 158 Rocket 3.9 05:36:53 22° NNW 05:40:11 67° WSW 05:45:25 10° S
Cosmos 1943 Rocket 3.9 05:40:47 16° NNW 05:40:47 16° NNW 05:43:40 10° N
NOSS 3-2 (C) 4.4 05:38:34 25° NW 05:40:39 30° NNW 05:46:47 10° NE
SJ-12 4.2 05:36:47 10° N 05:40:43 42° WNW 05:44:37 10° SW
Cosmos 1408 Rocket 3.7 05:38:20 10° SSW 05:42:26 44° WNW 05:46:35 10° N
CZ-4B R/B 3.4 05:39:34 10° NNE 05:43:05 52° E 05:46:38 10° S
FALCON 9 DEB 2.9 05:44:13 50° NNW 05:44:35 55° NNE 05:47:25 10° E
Cosmos 2263 Rocket 4.3 05:41:20 10° N 05:45:02 18° NE 05:48:43 10° ENE
Meteor 1-25 Rocket 4.4 05:40:51 10° S 05:46:25 75° E 05:52:00 10° NNE
FAST Rocket 4.2 05:45:09 10° SSW 05:47:54 79° W 05:51:50 10° N
Meteor 1-31 Rocket 3.0 05:45:38 10° N 05:49:22 43° WNW 05:53:05 10° SW
Lacrosse 5 4.0 05:45:14 10° S 05:49:30 27° SE 05:53:47 10° ENE
USA 32 3.9 05:45:04 10° N 05:50:21 80° W 05:55:35 10° S
Envisat 3.3 05:46:18 10° N 05:51:04 42° WNW 05:55:50 10° SW
Cosmos 1743 Rocket 3.5 05:50:21 10° SSW 05:54:40 60° WNW 05:58:59 10° N
Cosmos 923 Rocket 4.2 05:49:24 10° NNW 05:54:47 79° ENE 06:00:08 10° SSE
OPS 6432 4.3 05:55:13 36° WNW 05:56:12 59° SW 05:59:35 10° SSE
Cosmos 1174 3.6 05:55:45 36° WNW 05:56:14 39° NW 05:59:21 10° NNE
SJ 16-02 1.6 05:52:42 10° SW 05:56:53 44° WNW 06:01:07 10° N
CZ-2C R/B 3.0 05:52:00 10° NNE 05:56:58 86° ESE 06:02:10 10° SSW
USA 215 3.3 05:56:06 10° SE 06:02:37 72° SW 06:07:53 17° WNW
Lacrosse 4 Rocket 2.5 05:59:39 11° NNW 06:03:40 43° NE 06:07:58 10° ESE
SL-4 R/B 2.8 06:00:42 10° SW 06:04:04 43° SSE 06:07:39 10° ENE
Cosmos 2227 Rocket 2.5 05:59:16 10° NNW 06:04:55 68° ENE 06:10:32 10° SE
Nadezhda 4 Rocket 4.2 05:59:21 10° SSW 06:05:19 49° WNW 06:11:24 10° N
Cosmos 1939 Rocket 3.0 06:03:30 10° NNE 06:07:25 74° E 06:11:17 10° S
IRAS Rocket 4.3 06:03:33 10° S 06:08:56 55° WSW 06:14:20 10° NNW
Cosmos 2228 Rocket 3.3 06:05:54 10° NNW 06:10:17 50° W 06:14:40 10° S
Okean 1 3.2 06:07:39 10° NNW 06:11:36 67° W 06:15:31 10° S
Meteor 2-4 Rocket 4.1 06:07:23 10° N 06:13:20 71° ENE 06:19:07 10° SSE
FengYun 1-2 T 4.4 06:09:36 10° NNE 06:15:08 80° ESE 06:20:38 10° SSW
Meteor PRIRODA 3.7 06:13:36 10° N 06:17:09 53° WNW 06:20:41 10° SSW
Cosmos 1602 3.9 06:15:38 10° SSW 06:19:17 45° WNW 06:22:59 10° N
Sich 1 2.9 06:15:39 10° SSW 06:19:53 65° WNW 06:24:09 10° N
Meteor 1-18 Rocket 4.2 06:14:14 10° NNW 06:20:05 79° W 06:25:47 10° S
Cosmos 1428 Rocket 4.4 06:14:07 10° SSW 06:20:13 70° WNW 06:26:20 10° N
NOAA 11 4.3 06:15:48 10° N 06:21:07 52° WNW 06:26:25 10° SW
Cosmos 1500 Rocket 4.3 06:17:23 10° SW 06:21:25 32° WNW 06:25:28 10° N
COSMOS 2487 4.0 06:20:58 16° W 06:21:29 17° W 06:23:41 10° SW
DMSP B5D2-2 4.4 06:16:51 10° S 06:21:47 43° W 06:26:45 10° NNW
Cosmos 2112 Rocket 4.1 06:17:32 10° NNW 06:22:54 87° ENE 06:28:11 10° SSE
BREEZE M DEB (TANK) 2.2 06:21:00 17° W 06:23:02 51° SSW 06:25:02 10° ESE
Cosmos 990 Rocket 4.1 06:18:38 10° SSW 06:23:53 85° ESE 06:29:09 10° NNE
Meteor 1-20 Rocket 4.4 06:20:22 10° SSW 06:25:51 52° WNW 06:31:29 10° N
Meteor 2-21 4.4 06:19:44 10° SSW 06:25:54 75° W 06:32:04 10° N
Cosmos 1092 Rocket 4.1 06:20:07 10° SSW 06:26:16 57° WNW 06:32:31 10° N
ATLAS 5 CENTAUR R/B 2.1 06:23:00 11° W 06:26:27 34° NW 06:30:40 10° NNE
Cosmos 1500 3.2 06:22:58 10° SSW 06:26:43 57° WNW 06:30:28 10° N
PSLV R/B 4.0 06:27:01 10° SSE 06:31:06 86° ENE 06:35:15 10° NNW
H-2A R/B 2.5 06:27:57 10° S 06:32:06 45° W 06:36:22 10° NNW
Cosmos 1707 Rocket 3.7 06:28:29 10° NNW 06:32:52 59° W 06:37:15 10° S
Geosat FO 4.4 06:30:10 10° SSE 06:33:26 64° WSW 06:36:48 10° NW
Cosmos 1805 Rocket 4.0 06:29:57 10° SW 06:34:03 38° WNW 06:38:09 10° N
Cosmos 1697 Rocket 3.8 06:30:08 10° S 06:35:31 49° ESE 06:40:55 10° NE
Cosmos 44 4.3 06:36:07 10° SSW 06:41:22 58° ESE 06:46:28 10° NE
Cosmos 1980 Rocket 4.4 06:37:18 10° SSE 06:42:11 30° ESE 06:47:04 10° NE
PSLV R/B 3.9 06:39:45 10° NNE 06:43:45 89° E 06:47:48 10° SSW
Cosmos 2219 3.3 06:38:31 10° NNW 06:44:08 67° WSW 06:49:46 10° SSE
Cosmos 1862 Rocket 3.5 06:42:10 10° NNW 06:46:29 71° W 06:50:48 10° S
FALCON 9 DEB 3.7 06:45:46 10° WNW 06:48:24 33° SW 06:51:00 10° SSE
FALCON 9 DEB 3.6 06:47:29 10° WNW 06:50:09 36° SSW 06:52:48 10° SE
CZ-4B R/B 4.2 06:45:59 10° NNE 06:51:11 52° E 06:56:24 10° S
FALCON 9 DEB 3.2 06:49:03 10° WNW 06:51:51 48° SSW 06:54:38 10° SE
CENTAUR R/B 4.1 06:46:46 10° NW 06:52:47 28° N 06:59:36 10° ENE
Cosmos 2266 Rocket 4.5 06:47:27 10° S 06:53:33 68° E 06:59:47 10° NNE
AQUARIUS 4.2 06:50:11 10° N 06:54:36 57° WNW 06:59:00 10° SSW
Cosmos 1666 2.9 06:51:42 10° SSW 06:55:22 48° WNW 06:59:02 10° N
